Location: Lecco
(45.8566°N, 9.3977°E)
Time: 23:08:21
(UTC+02:00)

deb Explorer IX - Visible Passes

Search period start: 16 July 2019 00:00
Search period end: 26 July 2019 00:00
Orbit: 539 x 1112 km, 38.8° (Epoch: 15 July)

Date Brightness Start Highest point End Pass type
(mag) Time Alt. Az. Time Alt. Az. Time Alt. Az.
16 Jul ? 04:55:35 10° S 04:57:05 12° SSE 04:58:34 10° SE visible
17 Jul ? 04:33:40 10° S 04:35:14 12° SSE 04:36:48 10° SE visible
18 Jul ? 04:12:15 11° S 04:13:23 12° SSE 04:15:03 10° SE visible
19 Jul ? 03:51:21 13° SSE 03:51:32 13° SSE 03:53:20 10° SE visible
20 Jul ? 03:30:27 13° SE 03:30:27 13° SE 03:31:39 10° SE visible
20 Jul ? 05:12:14 10° SW 05:15:44 27° S 05:19:13 10° ESE visible
21 Jul ? 03:09:33 11° SE 03:09:33 11° SE 03:09:57 10° SE visible
21 Jul ? 04:50:55 13° SW 04:53:53 28° S 04:57:23 10° ESE visible
22 Jul ? 04:30:00 19° SW 04:32:04 28° S 04:35:34 10° ESE visible
23 Jul ? 04:09:07 25° SSW 04:10:14 29° S 04:13:45 10° ESE visible
24 Jul ? 03:48:14 29° S 03:48:24 29° S 03:51:58 10° ESE visible
25 Jul ? 03:27:26 27° SSE 03:27:26 27° SSE 03:30:11 10° ESE visible
25 Jul ? 05:09:13 10° WSW 05:12:46 27° S 05:16:13 10° SE visible
